Location: Kitt Peak
(31.9633°N, 111.6000°W)
Time: 18:38:12
(UTC-07:00)

Amateur Radio Satellites - All Passes

Search period start: 17 September 2014 18:08
Search period end: 18 September 2014 18:08
Location: Kitt Peak, 31.9633°N, 111.6000°W

Satellite Date Start Highest point End Downlink Frequencies (MHz)
Time Altitude Azimuth
STRAND 1 17 Sep 18:30:56 18:35:19 28° 97° (E) 18:39:42 ?
KITSAT 1 17 Sep 18:51:28 18:59:16 56° 111° (ESE) 19:07:06 435.175 FM
JAS-2 17 Sep 19:15:44 19:16:25 10° 267° (W) 19:17:06 435.800 - 435.900 CW/SSB, 435.910 FM
SO-67 17 Sep 19:18:16 19:21:30 38° 261° (W) 19:24:45 435.3500 MHz FM
STRAND 1 17 Sep 20:10:07 20:14:21 27° 290° (WNW) 20:18:36 ?
HO-68 17 Sep 20:27:24 20:34:26 66° 72° (ENE) 20:41:30 435.675 MHz FM
PCSat 17 Sep 20:38:30 20:41:30 15° 52° (NE) 20:44:28 145.825 MHz
KITSAT 1 17 Sep 20:48:09 20:54:58 29° 308° (NW) 21:01:49 435.175 FM
Oscar 11 17 Sep 20:55:11 20:59:01 31° 72° (ENE) 21:02:51 145.825 FM, Beacon 2401.500 USB
UKube-1 17 Sep 21:09:18 21:13:36 72° 76° (ENE) 21:17:56 145.840 MHz, 145.915 MHz
SO-50 17 Sep 21:23:46 21:27:09 22° 110° (ESE) 21:30:35 436.795 FM
AO-40 17 Sep 21:30:59 00:16:53 25° 113° (ESE) 01:32:49 Beacon 2401.320
Sapphire 17 Sep 21:52:43 21:58:06 62° 63° (ENE) 22:03:27 437.095 MHz 1200 baud AX-25 AFSK
FUNcube-1 17 Sep 22:15:00 22:19:18 77° 259° (WSW) 22:23:46 145.950 - 145.970 MHz USB
HO-68 17 Sep 22:17:59 22:22:31 18° 266° (W) 22:27:06 435.675 MHz FM
PCSat 17 Sep 22:19:59 22:25:22 67° 248° (WSW) 22:30:43 145.825 MHz
Oscar 11 17 Sep 22:32:19 22:35:11 17° 265° (W) 22:38:05 145.825 FM, Beacon 2401.500 USB
SO-50 17 Sep 23:03:35 23:07:29 29° 305° (NW) 23:11:28 436.795 FM
UOSAT-12 17 Sep 23:12:13 23:15:49 23° 110° (ESE) 23:19:29 437.025 FM, 437.400 FM
Sapphire 17 Sep 23:38:30 23:40:54 13° 257° (WSW) 23:43:18 437.095 MHz 1200 baud AX-25 AFSK
UOSAT-12 18 Sep 00:51:45 00:55:46 29° 305° (NW) 00:59:53 437.025 FM, 437.400 FM
Oscar 19 18 Sep 01:14:53 01:19:15 28° 97° (E) 01:23:35 437.125 CW, 437.150 USB
AO-27 18 Sep 01:29:25 01:32:20 15° 94° (E) 01:35:15 436.795 MHz FM
PANSAT 18 Sep 01:39:52 01:43:09 27° 164° (SSE) 01:46:27 not established
ISS 18 Sep 01:45:16 01:48:12 29° 130° (SE) 01:51:09 145.800 FM
Oscar 16 18 Sep 01:52:44 01:57:55 73° 102° (ESE) 02:03:02 437.025 USB, Beacon 2401.1428
JAS-1B 18 Sep 02:00:03 02:05:14 36° 99° (E) 02:10:29 435.800 - 435.900 CW/SSB
Gurwin Techsat 1B 18 Sep 02:11:14 02:14:51 18° 95° (E) 02:18:27 435.225 FM
AO-Echo 18 Sep 02:20:12 02:25:01 64° 101° (ESE) 02:29:59 ?
Saudisat 1A 18 Sep 02:27:51 02:32:11 55° 60° (ENE) 02:36:30 436.775 MHz
ITAMSAT 1 18 Sep 02:32:20 02:37:32 71° 102° (ESE) 02:42:44 435.822 SSB
Uribyol 2 18 Sep 02:37:00 02:42:14 85° 103° (ESE) 02:47:28 436.500 FM
TMSAT-1 18 Sep 02:48:32 02:53:15 32° 98° (E) 02:57:57 436.925 FM
KITSAT 1 18 Sep 02:52:55 02:55:58 12° 40° (NE) 02:59:00 435.175 FM
Oscar 19 18 Sep 02:54:09 02:58:27 27° 290° (WNW) 03:02:44 437.125 CW, 437.150 USB
AO-27 18 Sep 03:07:01 03:12:03 50° 287° (WNW) 03:17:04 436.795 MHz FM
PANSAT 18 Sep 03:19:20 03:23:02 48° 176° (S) 03:26:45 not established
ISS 18 Sep 03:22:22 03:24:55 20° 324° (NW) 03:27:30 145.800 FM
OPAL 18 Sep 03:25:49 03:29:43 22° 66° (ENE) 03:33:39 ?
RS-15 18 Sep 03:29:24 03:40:05 54° 110° (ESE) 03:50:30 29.354 - 29.394 USB, Beacon 29.352 USB
Uosat F 18 Sep 03:31:44 03:33:17 11° 93° (E) 03:34:50 435.120 FM
Oscar 16 18 Sep 03:35:23 03:36:34 11° 296° (WNW) 03:37:44 437.025 USB, Beacon 2401.1428
AO-7 18 Sep 03:36:45 03:43:09 24° 97° (E) 03:49:31 29.400 - 29.500 MHz
Gurwin Techsat 1B 18 Sep 03:49:56 03:54:55 42° 288° (WNW) 03:59:53 435.225 FM
JAS-1B 18 Sep 03:51:26 03:55:41 22° 293° (WNW) 03:59:57 435.800 - 435.900 CW/SSB
AO-Echo 18 Sep 04:01:50 04:03:15 11° 294° (WNW) 04:04:41 ?
Saudisat 1A 18 Sep 04:10:23 04:11:14 11° 253° (WSW) 04:12:04 436.775 MHz
ITAMSAT 1 18 Sep 04:14:44 04:16:22 11° 296° (WNW) 04:18:00 435.822 SSB
TMSAT-1 18 Sep 04:28:43 04:32:57 25° 291° (WNW) 04:37:11 436.925 FM
JAS-2 18 Sep 04:42:17 04:43:19 10° 93° (E) 04:44:23 435.800 - 435.900 CW/SSB, 435.910 FM
KITSAT 1 18 Sep 04:45:03 04:53:03 62° 61° (ENE) 05:01:00 435.175 FM
PANSAT 18 Sep 04:59:22 05:02:59 41° 189° (S) 05:06:37 not established
OPAL 18 Sep 05:03:36 05:08:18 36° 260° (W) 05:13:05 ?
Uosat F 18 Sep 05:07:25 05:12:21 61° 286° (WNW) 05:17:18 435.120 FM
AO-7 18 Sep 05:28:09 05:36:14 60° 291° (WNW) 05:44:19 29.400 - 29.500 MHz
STRAND 1 18 Sep 05:42:32 05:46:37 25° 69° (ENE) 05:50:44 ?
RS-15 18 Sep 05:42:35 05:52:36 38° 309° (NW) 06:02:34 29.354 - 29.394 USB, Beacon 29.352 USB
Hamsat 18 Sep 05:44:03 05:47:50 31° 97° (E) 05:51:34 145.90 MHz
JAS-2 18 Sep 06:22:29 06:28:38 90° 283° (WNW) 06:35:37 435.800 - 435.900 CW/SSB, 435.910 FM
PANSAT 18 Sep 06:40:03 06:42:47 19° 201° (SSW) 06:45:30 not established
KITSAT 1 18 Sep 06:41:51 06:47:46 23° 256° (WSW) 06:53:41 435.175 FM
SO-67 18 Sep 06:47:11 06:49:38 18° 96° (E) 06:52:05 435.3500 MHz FM
Hamsat 18 Sep 07:20:51 07:23:30 16° 291° (WNW) 07:26:08 145.90 MHz
STRAND 1 18 Sep 07:21:15 07:25:38 29° 262° (W) 07:30:03 ?
SO-50 18 Sep 07:38:55 07:43:43 65° 61° (ENE) 07:48:33 436.795 FM
MaSat-1 18 Sep 07:42:08 07:46:46 41° 107° (ESE) 07:51:29 437.345 MHz
HO-68 18 Sep 08:02:58 08:06:47 15° 93° (E) 08:10:34 435.675 MHz FM
RS-15 18 Sep 08:08:32 08:09:29 10° 340° (NNW) 08:10:25 29.354 - 29.394 USB, Beacon 29.352 USB
JAS-2 18 Sep 08:11:18 08:13:06 11° 296° (WNW) 08:14:56 435.800 - 435.900 CW/SSB, 435.910 FM
SO-67 18 Sep 08:20:13 08:22:30 17° 288° (WNW) 08:24:47 435.3500 MHz FM
UKube-1 18 Sep 09:03:29 09:06:27 18° 96° (E) 09:09:24 145.840 MHz, 145.915 MHz
MaSat-1 18 Sep 09:20:01 09:23:41 20° 301° (WNW) 09:27:21 437.345 MHz
SO-50 18 Sep 09:22:29 09:23:43 11° 253° (WSW) 09:24:58 436.795 FM
UOSAT-12 18 Sep 09:25:18 09:29:58 62° 60° (ENE) 09:34:33 437.025 FM, 437.400 FM
HO-68 18 Sep 09:47:49 09:54:59 77° 287° (WNW) 10:02:09 435.675 MHz FM
ISS 18 Sep 09:54:03 09:57:15 43° 42° (NE) 10:00:26 145.800 FM
FUNcube-1 18 Sep 10:09:21 10:13:27 31° 97° (E) 10:17:28 145.950 - 145.970 MHz USB
Oscar 11 18 Sep 10:23:10 10:27:28 64° 284° (WNW) 10:31:44 145.825 FM, Beacon 2401.500 USB
RS-15 18 Sep 10:27:43 10:29:56 11° 21° (NNE) 10:32:09 29.354 - 29.394 USB, Beacon 29.352 USB
UKube-1 18 Sep 10:38:50 10:42:38 30° 288° (WNW) 10:46:25 145.840 MHz, 145.915 MHz
Sapphire 18 Sep 10:48:47 10:51:56 16° 104° (ESE) 10:55:06 437.095 MHz 1200 baud AX-25 AFSK
Oscar 10/S400 18 Sep 11:07:16 02:14:00 49° 229° (SW) 11:54:02 145.825 - 145.975 CW/USB, Beacon 145.810 USB
UOSAT-12 18 Sep 11:08:44 11:09:30 10° 254° (WSW) 11:10:16 437.025 FM, 437.400 FM
PCSat 18 Sep 11:14:09 11:18:53 32° 108° (ESE) 11:23:38 145.825 MHz
ISS 18 Sep 11:32:18 11:33:38 12° 234° (SW) 11:34:57 145.800 FM
HO-68 18 Sep 11:39:33 11:41:30 11° 303° (WNW) 11:43:28 435.675 MHz FM
FUNcube-1 18 Sep 11:46:14 11:49:34 20° 291° (WNW) 11:52:51 145.950 - 145.970 MHz USB
Oscar 19 18 Sep 12:27:16 12:31:26 25° 69° (ENE) 12:35:38 437.125 CW, 437.150 USB
Sapphire 18 Sep 12:29:36 12:34:51 52° 298° (WNW) 12:40:08 437.095 MHz 1200 baud AX-25 AFSK
RS-15 18 Sep 12:36:25 12:46:42 40° 52° (NE) 12:57:18 29.354 - 29.394 USB, Beacon 29.352 USB
JAS-1B 18 Sep 12:38:46 12:45:49 28° 68° (ENE) 12:52:01 435.800 - 435.900 CW/SSB
AO-27 18 Sep 12:43:32 12:46:19 15° 65° (ENE) 12:49:06 436.795 MHz FM
PCSat 18 Sep 12:57:39 13:02:13 28° 303° (WNW) 13:06:50 145.825 MHz
Oscar 16 18 Sep 13:04:44 13:09:50 65° 75° (ENE) 13:14:59 437.025 USB, Beacon 2401.1428
Gurwin Techsat 1B 18 Sep 13:27:59 13:31:36 19° 67° (ENE) 13:35:13 435.225 FM
AO-Echo 18 Sep 13:28:41 13:33:17 48° 74° (ENE) 13:37:48 ?
ITAMSAT 1 18 Sep 13:45:31 13:50:37 65° 75° (ENE) 13:55:44 435.822 SSB
Uribyol 2 18 Sep 13:50:00 13:55:08 78° 76° (ENE) 14:00:19 436.500 FM
TMSAT-1 18 Sep 14:04:41 14:09:18 32° 71° (ENE) 14:13:55 436.925 FM
Oscar 19 18 Sep 14:06:03 14:10:35 31° 263° (W) 14:15:09 437.125 CW, 437.150 USB
AO-27 18 Sep 14:20:17 14:25:19 54° 259° (W) 14:30:23 436.795 MHz FM
JAS-1B 18 Sep 14:27:09 14:36:02 56° 258° (WSW) 14:43:36 435.800 - 435.900 CW/SSB
AO-7 18 Sep 14:31:21 14:37:26 23° 60° (ENE) 14:43:29 29.400 - 29.500 MHz
Oscar 16 18 Sep 14:48:02 14:49:32 11° 268° (W) 14:51:02 437.025 USB, Beacon 2401.1428
RS-15 18 Sep 14:48:31 14:59:13 53° 250° (WSW) 15:10:26 29.354 - 29.394 USB, Beacon 29.352 USB
Gurwin Techsat 1B 18 Sep 15:06:10 15:11:11 43° 261° (W) 15:16:13 435.225 FM
AO-Echo 18 Sep 15:10:06 15:12:14 13° 266° (W) 15:14:21 ?
ITAMSAT 1 18 Sep 15:29:07 15:30:27 11° 268° (W) 15:31:47 435.822 SSB
TMSAT-1 18 Sep 15:44:53 15:49:09 25° 264° (W) 15:53:26 436.925 FM
Uosat F 18 Sep 16:15:42 16:20:40 74° 258° (WSW) 16:25:40 435.120 FM
AO-7 18 Sep 16:21:12 16:29:27 68° 255° (WSW) 16:37:44 29.400 - 29.500 MHz
Saudisat 1A 18 Sep 16:29:38 16:33:49 46° 114° (ESE) 16:38:02 436.775 MHz
JAS-2 18 Sep 16:32:40 16:36:15 19° 68° (ENE) 16:39:45 435.800 - 435.900 CW/SSB, 435.910 FM
Hamsat 18 Sep 16:34:12 16:36:20 14° 68° (ENE) 16:38:28 145.90 MHz
OPAL 18 Sep 17:17:59 17:23:10 88° 285° (WNW) 17:28:14 ?
KITSAT 1 18 Sep 17:18:22 17:21:03 12° 100° (E) 17:23:43 435.175 FM
MaSat-1 18 Sep 17:40:56 17:43:54 23° 60° (ENE) 17:46:31 437.345 MHz
STRAND 1 18 Sep 17:59:34 18:01:35 12° 93° (E) 18:03:37 ?
